Location: ???????
(55.4362°N, 38.1183°E)
Time: 12:46:10
(UTC+00:00)

Cosmos 2219 Rocket - Pass Details

Date: 25 October 2021
Orbit: 826 x 848 km, 71.0° (Epoch: 01 December)

Event Time Altitude Azimuth Distance (km) Brightness Sun altitude
Rises 16:15:10 0° 174° (S) 3,357 5.2 -19.1°
Reaches altitude 10° 16:17:52 10° 163° (SSE) 2,431 4.4 -19.5°
Enters shadow 16:19:14 16° 153° (SSE) 2,023 3.9 -19.7°
